Location: Gorlice
(49.6633°N, 21.1693°E)
Time: 00:33:19
(UTC+01:00)

ISS - Pass Details

Date: 28 January 2019
Orbit: 403 x 411 km, 51.6° (Epoch: 20 February)

Event Time Altitude Azimuth Distance (km) Brightness Sun altitude
Rises 19:07:58 0° 273° (W) 2,338 1.4 -26.5°
Reaches altitude 10° 19:10:05 10° 277° (W) 1,479 0.0 -26.9°
Enters shadow 19:11:28 23° 284° (WNW) 941 -1.3 -27.1°
